Temperature
3 3 3 3 3 3 3 3 2 2 2 3 3 3 3 3 3 3 3 3 3 3 3 3 3 3 3 3 3 3 3 3 3 3 4 4 4 4
3 3 3 3 3 2 2 2 2 2 2 2 2 3 3 3 3 3 3 3 3 3 3 3 3 2 3 3 3 3 3 3 3 3 3 3 3 3
3 2 2 2 2 2 2 2 1 1 1 2 2 2 2 2 2 2 2 2 2 2 2 2 2 2 2 2 2 2 2 2 3 3 3 3 3 3
2 2 2 2 2 2 1 1 1 1 1 1 2 2 2 2 2 2 2 1 2 2 2 2 2 2 2 2 2 2 2 2 2 2 3 3 3 3
2 2 2 2 1 1 1 1 1 1 0 0 1 1 1 1 1 1 1 1 1 1 1 1 1 1 2 2 2 2 2 2 2 2 2 2 3 3
2 1 1 1 1 1 1 1 0 0 0 0 0 0 0 0 0 0 1 1 1 1 1 1 1 1 1 1 1 1 1 2 2 2 2 2 2 2
1 1 1 1 0 0 0 0 0 -0 -0 -0 -0 -0 -0 -0 -0 -0 -0 0 1 0 0 1 1 1 1 1 1 1 1 1 1 2 2 2 2 2
1 1 1 0 0 -0 -0 -0 -0 -0 -0 -0 -1 -1 -1 -1 -1 -1 -1 -1 -1 -0 -0 -0 -0 0 0 1 1 1 1 1 1 1 1 1 2 2
0 0 0 0 -0 -0 -0 -1 -1 -1 -1 -1 -1 -1 -1 -1 -1 -1 -1 -1 -1 -1 -1 -1 -0 -0 0 0 0 0 0 1 1 1 1 1 1 1
0 0 -0 -0 -0 -1 -1 -1 -1 -1 -1 -1 -1 -1 -1 -1 -1 -2 -2 -2 -1 -1 -2 -2 -1 -1 -0 -0 -0 0 0 0 0 0 0 0 1 1
-0 -0 -1 -1 -1 -1 -1 -1 -1 -1 -1 -1 -2 -2 -2 -2 -2 -2 -2 -2 -2 -2 -2 -2 -2 -1 -1 -0 -0 -0 -0 -0 -0 -0 -0 -0 0 0
-1 -1 -1 -1 -1 -1 -1 -1 -1 -1 -1 -1 -2 -2 -2 -2 -2 -2 -2 -3 -3 -3 -2 -2 -2 -2 -2 -1 -1 -1 -1 -1 -1 -0 -0 -0 -0 -0
-1 -1 -1 -1 -1 -1 -2 -2 -2 -2 -2 -2 -2 -2 -2 -2 -2 -3 -3 -3 -3 -3 -3 -3 -3 -3 -3 -3 -2 -1 -2 -1 -1 -1 -1 -1 -1 -1
-2 -2 -2 -2 -2 -2 -2 -2 -2 -2 -2 -2 -2 -2 -2 -2 -3 -3 -3 -3 -3 -3 -3 -3 -3 -3 -3 -3 -3 -2 -2 -2 -2 -1 -1 -1 -1 -1
-2 -2 -2 -2 -2 -2 -2 -2 -2 -2 -3 -3 -3 -3 -3 -3 -3 -3 -3 -3 -3 -3 -3 -3 -3 -3 -3 -3 -3 -3 -3 -2 -2 -2 -2 -2 -2 -1
-3 -3 -3 -3 -3 -3 -3 -3 -3 -3 -3 -3 -3 -3 -3 -3 -3 -3 -3 -3 -3 -3 -3 -3 -3 -3 -3 -3 -3 -3 -3 -3 -3 -3 -2 -2 -2 -2
-3 -3 -3 -3 -3 -3 -3 -3 -3 -3 -3 -3 -3 -3 -3 -3 -3 -3 -3 -3 -3 -3 -3 -3 -3 -3 -3 -3 -3 -3 -3 -3 -3 -3 -3 -3 -2 -2
-3 -3 -3 -3 -3 -3 -3 -3 -3 -4 -4 -4 -4 -4 -4 -4 -3 -3 -4 -4 -4 -4 -4 -3 -3 -3 -3 -3 -3 -4 -4 -4 -4 -4 -4 -3 -3 -2
-3 -4 -4 -3 -3 -3 -3 -4 -4 -4 -4 -4 -4 -4 -4 -4 -4 -4 -4 -4 -4 -4 -4 -4 -4 -4 -4 -4 -4 -4 -4 -4 -4 -4 -4 -4 -3 -3
-4 -4 -4 -4 -4 -4 -4 -4 -4 -4 -4 -4 -4 -4 -4 -4 -4 -4 -4 -4 -4 -4 -4 -4 -4 -5 -5 -5 -5 -4 -4 -5 -5 -4 -4 -4 -4 -3
-4 -4 -4 -4 -4 -4 -4 -4 -4 -4 -4 -4 -4 -4 -4 -4 -4 -4 -4 -4 -4 -4 -4 -4 -5 -5 -5 -5 -5 -5 -4 -5 -5 -5 -5 -5 -4 -4
-4 -4 -4 -4 -4 -4 -4 -4 -4 -4 -4 -4 -4 -5 -5 -5 -5 -5 -5 -5 -5 -5 -5 -5 -5 -5 -5 -5 -5 -5 -5 -4 -5 -5 -5 -5 -5 -5
-5 -5 -5 -5 -5 -5 -5 -5 -5 -5 -5 -5 -5 -5 -5 -5 -5 -5 -5 -5 -5 -5 -5 -5 -5 -5 -5 -5 -6 -5 -5 -5 -5 -4 -4 -4 -4 -4
Wind_Speed
3 3 3 3 3 3 2 3 3 4 5 4 3 3 5 5 7 6 6 8 10 10 10 10 11 11 11 12 12 12 12 12 12 13 12 13 13 14
3 3 3 3 2 2 3 3 3 4 5 3 4 4 5 5 7 6 7 9 10 10 11 11 11 11 11 12 12 12 12 12 12 13 12 13 13 14
4 4 4 4 3 3 3 3 3 3 6 5 3 3 3 3 5 6 7 7 8 10 11 11 11 11 10 11 11 12 12 12 13 13 13 13 14 14
5 4 5 4 4 3 3 4 4 4 5 7 5 3 3 3 3 4 5 6 7 10 11 11 11 11 11 11 11 12 12 12 13 12 12 13 13 14
5 6 6 5 5 4 4 4 4 4 4 5 5 3 3 3 3 4 4 4 6 8 10 10 11 11 11 11 12 11 11 12 12 11 11 12 12 13
6 6 6 6 6 6 5 5 4 4 4 4 5 3 3 2 2 3 4 4 4 5 7 8 10 11 11 11 11 10 11 11 11 11 11 11 11 12
5 6 6 7 9 7 6 5 5 4 4 4 4 4 3 2 3 2 4 4 5 3 4 5 6 6 7 10 10 10 11 11 11 11 10 10 10 11
6 5 6 7 9 10 11 9 7 6 5 5 5 5 5 4 3 3 3 4 4 2 3 6 4 5 6 6 10 10 11 11 10 10 10 10 10 10
5 5 5 6 7 6 8 9 9 9 8 6 6 7 5 5 4 4 4 4 6 4 4 5 4 6 6 8 11 10 10 9 8 8 8 7 7 7
5 5 5 5 5 5 5 5 6 6 7 7 7 7 5 4 5 5 5 5 5 4 2 4 4 5 6 7 9 9 8 8 7 7 7 6 6 6
4 4 5 5 8 7 5 5 5 5 6 8 8 7 7 7 5 2 2 3 5 4 2 2 3 5 4 4 6 8 7 7 7 7 7 7 7 7
3 4 6 7 8 8 6 5 6 5 4 3 4 5 5 6 6 4 4 4 4 3 2 2 2 3 3 3 3 5 5 7 8 8 8 8 7 5
4 4 5 8 9 9 7 6 7 5 3 4 3 3 3 3 4 4 4 4 5 5 3 2 2 2 3 4 4 3 3 4 5 5 7 8 8 5
4 4 5 7 7 7 6 6 7 5 3 3 3 3 3 3 3 3 4 5 6 6 6 4 3 3 3 4 4 3 3 3 3 3 4 7 7 8
4 6 6 7 6 5 5 5 4 3 3 3 4 4 4 4 3 3 3 3 4 4 5 5 4 4 4 4 4 3 3 3 3 3 3 4 4 4
4 5 6 5 4 3 3 3 2 3 3 4 3 3 2 2 2 2 2 2 2 3 3 4 4 4 4 5 4 5 3 3 3 3 3 4 4 4
2 2 1 2 2 2 2 2 2 2 3 3 3 3 3 3 2 2 2 2 2 3 3 3 2 2 4 4 4 4 3 3 3 4 4 4 4 4
2 2 2 2 3 3 3 2 2 3 3 3 3 3 3 3 3 2 2 2 3 3 3 2 2 3 2 2 4 4 3 3 3 3 3 4 5 4
1 2 3 3 3 3 3 3 3 3 3 3 3 3 3 3 2 2 2 2 3 3 3 2 2 1 2 4 3 2 3 3 3 3 3 3 5 5
1 2 2 3 3 2 2 2 2 2 2 2 3 3 3 3 2 2 2 2 2 3 3 2 2 2 2 3 3 3 4 4 3 4 4 4 4 5
2 2 2 2 2 2 2 2 2 3 3 3 3 3 3 3 3 2 2 3 2 2 3 3 3 4 2 1 2 3 3 4 4 4 4 4 3 3
2 2 2 2 2 2 2 2 2 2 2 3 3 3 3 3 3 3 2 2 2 2 3 2 2 2 1 2 3 4 4 4 5 6 5 5 3 2
2 2 2 2 2 2 2 2 2 2 3 3 3 2 2 2 2 2 2 2 2 2 2 2 2 2 2 2 2 3 3 4 3 4 4 5 5 6
Wind_Direction
226 229 236 244 241 242 236 224 232 271 276 264 271 274 286 280 283 287 286 289 294 294 292 291 290 290 289 289 288 289 289 289 292 291 291 293 293 292
221 223 238 244 243 239 237 242 235 243 264 263 258 279 288 289 292 295 285 291 292 291 291 291 290 290 289 290 286 286 285 286 290 288 288 289 290 291
228 224 235 238 239 242 242 244 244 239 260 276 270 277 269 276 299 296 290 285 285 289 291 291 289 287 289 292 291 288 287 287 290 287 286 286 288 290
229 228 235 233 235 238 236 242 245 241 251 272 283 280 274 280 288 294 297 295 289 290 293 293 289 290 291 291 290 288 287 288 288 286 286 287 289 290
228 228 234 226 237 238 235 240 244 250 246 259 275 274 277 288 301 303 301 295 295 296 296 294 293 294 294 291 289 286 287 290 288 285 284 286 288 290
232 231 233 229 233 233 237 238 238 244 247 255 268 275 272 287 285 301 310 306 303 307 300 299 298 298 296 294 292 287 289 291 288 285 283 283 286 287
242 240 240 240 239 236 238 233 227 235 240 247 258 271 270 288 284 285 289 301 297 294 302 304 302 299 297 294 292 290 288 289 287 285 284 284 285 285
246 249 247 246 248 247 246 243 232 232 235 239 250 256 259 258 268 274 286 304 300 289 301 300 299 293 297 290 291 292 294 291 290 287 285 284 283 282
245 248 254 254 253 244 248 250 248 245 238 237 245 247 248 248 248 262 272 279 276 282 296 287 287 286 296 293 294 293 297 295 296 297 298 297 295 294
249 243 246 254 248 232 234 244 248 248 246 241 240 247 246 242 234 242 256 272 280 279 261 274 287 292 302 295 297 300 297 300 303 305 307 308 311 310
257 250 245 249 251 240 233 245 256 256 255 250 252 256 259 259 255 254 272 283 289 284 249 261 288 305 301 290 300 306 308 311 315 316 315 316 315 311
267 258 251 253 251 242 230 233 247 256 253 260 259 263 258 253 253 234 233 257 280 279 247 261 281 313 308 296 298 307 309 315 317 316 316 317 315 311
262 266 262 261 258 249 241 233 242 248 239 237 249 256 252 243 241 237 234 236 253 262 252 256 274 279 270 295 303 297 297 308 311 314 320 321 317 314
257 263 265 267 260 253 250 246 245 245 229 227 241 251 256 258 260 258 258 254 248 251 250 243 258 259 270 285 289 304 312 303 303 311 314 313 312 308
257 261 267 272 272 260 255 250 244 233 222 230 241 249 251 251 256 268 269 270 271 265 257 254 251 251 249 262 276 288 307 312 306 309 307 305 301 300
272 267 272 282 280 266 258 257 243 227 223 230 242 251 254 253 253 263 276 288 299 296 287 271 251 244 255 262 260 273 281 287 310 309 303 302 298 284
261 277 290 283 277 276 264 252 243 236 239 236 241 248 253 256 265 265 264 281 278 283 297 312 312 280 249 246 257 263 278 287 286 298 303 303 299 290
243 255 261 262 258 259 258 256 245 237 232 236 239 240 244 248 259 264 265 265 272 275 277 291 325 336 328 297 242 250 268 279 289 293 288 290 295 297
248 256 258 258 259 255 252 251 250 244 236 236 240 241 239 237 242 253 258 266 269 271 273 273 278 290 309 310 306 248 254 279 286 291 285 279 283 290
262 258 264 266 267 264 259 258 256 249 239 237 241 242 236 233 237 244 249 259 270 279 286 283 263 250 253 272 283 288 272 266 279 286 292 291 287 286
266 264 263 262 266 267 264 258 253 247 243 239 241 238 230 227 234 239 244 253 261 266 275 282 279 290 285 280 288 298 301 291 280 279 288 292 293 294
259 262 267 265 263 266 266 258 254 253 250 245 248 237 222 218 229 235 231 239 253 265 278 291 305 314 286 266 280 293 311 322 321 314 294 271 257 257
256 257 260 263 262 261 262 262 259 261 257 251 249 237 223 222 224 228 233 232 243 268 290 307 320 314 293 271 279 290 304 315 324 333 327 322 303 287
Height
1476 1477 1477 1477 1477 1477 1477 1477 1477 1473 1471 1470 1470 1469 1469 1468 1467 1467 1465 1465 1464 1462 1461 1460 1459 1458 1457 1456 1455 1454 1453 1453 1452 1451 1450 1449 1448 1446
1472 1472 1472 1472 1472 1472 1472 1472 1472 1471 1468 1466 1466 1466 1465 1464 1464 1462 1461 1460 1459 1458 1457 1455 1454 1453 1452 1451 1450 1449 1448 1447 1446 1445 1444 1443 1442 1441
1468 1468 1467 1468 1467 1467 1468 1468 1467 1467 1465 1463 1463 1462 1461 1460 1459 1458 1457 1456 1454 1453 1452 1451 1449 1448 1447 1445 1445 1444 1443 1442 1440 1439 1438 1437 1436 1434
1463 1463 1463 1463 1463 1463 1463 1463 1462 1462 1462 1459 1458 1458 1457 1456 1454 1453 1453 1452 1450 1449 1448 1446 1445 1444 1442 1441 1440 1438 1437 1436 1435 1434 1433 1431 1430 1428
1459 1459 1458 1458 1458 1458 1458 1458 1458 1458 1457 1456 1454 1454 1453 1452 1450 1449 1448 1447 1446 1445 1444 1442 1440 1439 1437 1436 1435 1433 1432 1431 1430 1428 1427 1426 1424 1423
1455 1454 1454 1454 1453 1454 1454 1453 1453 1453 1453 1452 1450 1449 1448 1448 1446 1444 1443 1442 1441 1440 1439 1437 1436 1434 1433 1431 1430 1428 1427 1426 1425 1423 1422 1420 1419 1418
1450 1450 1449 1449 1449 1449 1449 1449 1449 1449 1448 1447 1446 1445 1444 1443 1442 1441 1439 1438 1436 1436 1434 1433 1432 1430 1428 1426 1424 1423 1422 1421 1420 1419 1417 1416 1414 1413
1445 1445 1445 1445 1444 1444 1445 1445 1445 1445 1444 1443 1442 1441 1440 1440 1439 1438 1436 1434 1432 1432 1430 1428 1428 1425 1424 1422 1420 1419 1418 1417 1415 1414 1412 1411 1409 1408
1441 1440 1440 1440 1440 1440 1440 1440 1440 1440 1440 1440 1438 1437 1437 1436 1435 1434 1433 1431 1429 1428 1427 1424 1423 1421 1420 1418 1416 1415 1413 1412 1411 1409 1408 1407 1405 1404
1437 1436 1436 1435 1435 1435 1435 1435 1435 1434 1434 1435 1434 1433 1433 1433 1432 1431 1430 1428 1426 1425 1424 1421 1419 1417 1416 1414 1413 1411 1410 1408 1407 1406 1404 1403 1402 1401
1432 1432 1431 1431 1431 1431 1431 1430 1429 1429 1429 1430 1430 1429 1429 1429 1428 1427 1426 1424 1421 1420 1420 1418 1415 1413 1411 1410 1409 1408 1407 1405 1404 1403 1401 1399 1399 1398
1427 1427 1427 1426 1426 1426 1426 1425 1424 1424 1424 1425 1425 1425 1424 1424 1424 1423 1422 1420 1418 1416 1416 1415 1413 1411 1408 1406 1406 1405 1404 1402 1401 1400 1398 1397 1396 1395
1423 1422 1422 1422 1421 1421 1421 1421 1420 1420 1420 1420 1420 1420 1419 1419 1418 1418 1418 1417 1415 1414 1413 1412 1410 1409 1407 1404 1402 1402 1400 1399 1398 1397 1396 1395 1394 1392
1419 1419 1418 1418 1417 1417 1416 1416 1416 1416 1416 1415 1415 1415 1414 1414 1414 1413 1413 1413 1412 1411 1410 1409 1407 1406 1404 1401 1399 1398 1397 1396 1395 1393 1393 1392 1391 1390
1416 1415 1414 1414 1413 1412 1412 1412 1412 1411 1411 1411 1410 1410 1410 1410 1410 1409 1409 1408 1408 1407 1406 1404 1403 1402 1401 1399 1397 1396 1394 1393 1392 1391 1390 1389 1388 1387
1412 1411 1410 1409 1409 1408 1408 1407 1407 1407 1407 1406 1406 1406 1406 1406 1406 1405 1404 1404 1403 1402 1402 1401 1400 1399 1397 1396 1395 1393 1392 1390 1389 1389 1387 1386 1385 1384
1408 1407 1406 1405 1404 1404 1403 1403 1403 1403 1403 1402 1402 1402 1402 1402 1401 1401 1401 1400 1399 1397 1397 1397 1396 1396 1394 1393 1391 1390 1389 1388 1387 1386 1385 1382 1382 1381
1404 1402 1402 1401 1400 1400 1399 1399 1399 1399 1399 1399 1398 1398 1398 1398 1397 1397 1397 1396 1395 1394 1393 1393 1392 1392 1391 1390 1390 1387 1386 1385 1384 1383 1382 1380 1378 1378
1399 1398 1398 1397 1397 1396 1396 1395 1395 1395 1395 1395 1395 1394 1394 1394 1394 1393 1393 1392 1392 1391 1391 1390 1389 1389 1387 1385 1386 1386 1384 1382 1381 1380 1379 1377 1375 1375
1396 1395 1395 1394 1394 1393 1392 1392 1391 1391 1391 1391 1391 1391 1391 1391 1390 1390 1390 1389 1389 1388 1388 1387 1387 1386 1385 1384 1382 1382 1382 1380 1378 1376 1375 1374 1373 1373
1393 1392 1391 1391 1390 1390 1389 1389 1388 1388 1388 1388 1387 1387 1387 1387 1387 1387 1386 1386 1386 1385 1385 1384 1384 1384 1383 1382 1380 1378 1379 1378 1376 1374 1372 1371 1369 1368
1390 1389 1388 1388 1387 1386 1386 1386 1385 1385 1385 1384 1384 1384 1384 1384 1384 1384 1384 1383 1383 1383 1382 1382 1381 1381 1380 1378 1377 1375 1375 1375 1374 1372 1371 1369 1367 1365
1387 1386 1385 1385 1384 1383 1383 1382 1382 1382 1382 1381 1381 1381 1381 1381 1381 1381 1381 1381 1381 1380 1380 1379 1379 1378 1377 1376 1375 1373 1372 1371 1370 1368 1368 1367 1365 1364